Location: St. Louis
(38.6270°N, 90.1994°W)
Time: 00:04:01
(UTC-06:00)

Vanguard 1 - Pass Details

Date: 09 December 2021
Orbit: 652 x 3830 km, 34.2° (Epoch: 21 January)

Event Time Altitude Azimuth Distance (km) Brightness Sun altitude
Rises 22:26:38 0° 240° (WSW) 6,273 14.3 -65.7°
Reaches altitude 10° 22:30:11 10° 238° (WSW) 5,595 13.9 -66.3°
Enters shadow 22:33:35 21° 235° (SW) 5,016 13.6 -66.8°
Maximum altitude 22:49:03 69° 160° (SSE) 3,864 - -69.1°
Drops below altitude 10° 23:12:13 10° 84° (E) 6,667 - -72.0°
Exits shadow 23:14:11 - 83° (E) 6,998 14.3 -72.2°
Sets 23:16:56 0° 82° (E) 7,467 14.5 -72.5°
